Location: *
(49.9853°N, 3.5569°E)
Time: 20:35:50
(UTC+00:00)

Meteor 2-9 Rocket - Pass Details

Date: 22 September 2019
Orbit: 791 x 896 km, 81.3° (Epoch: 20 October)

Event Time Altitude Azimuth Distance (km) Brightness Sun altitude
Rises 18:08:29 0° 188° (S) 3,460 7.4 -4.6°
Reaches altitude 10° 18:10:57 10° 187° (S) 2,513 6.7 -5.0°
Maximum altitude 18:16:40 84° 102° (ESE) 865 4.3 -6.0°
Drops below altitude 10° 18:22:16 10° 13° (NNE) 2,461 6.6 -6.8°
Sets 18:24:39 0° 13° (NNE) 3,383 7.3 -7.2°
